DELTA 1 DEB, 40755

Orbit data source: Space-Track

DELTA 1 DEB, 40755 is space debris in SSO originally from a launch on Thu, 29 Jul 1976 UTC launched from the Air Force Western Test Range (AFWTR). Debris objects in space refer to the collection of defunct objects orbiting the Earth. Examples of debris include non-operational satellites, rocket bodies, and fragments generated from explosions, collisions, or faulty payload assembly.

Loading next visibility...
Identifier
40755, 1976-077FY
Orbit
SSO
Country
Flag of USUS
Related business
Manufacturer
Unknown
Mission
Spacecraft
Bus & Motor
Unknown
Mass
Unknown
Launch date (UTC)
1976-07-29 (49 years ago)
Launch vehicle
Unknown
Launch site
Air Force Western Test Range (AFWTR)
Object type
Payload
Rocket body
Debris
Shape & HBR
Unknown shape, 0.1 m
Radar Cross Section
Small (<0.1 m²)

Expand to show TLE details & history
Last TLE update: 4 days ago

TLE from 4 days ago
0 DELTA 1 DEB
1 40755U 76077FY  25285.87021498  .00000058  00000-0  72849-3 0  9995
2 40755 102.0190 258.9626 0015224 321.3632  38.6344 12.44978977952268
Epoch: 2025-10-12T20:53Z
TLE epoch observation values (Epoch: 2025-10-12T20:53:06.574Z)
Latitude
-0.00004°
Longitude
-75.99593°
Altitude
1,478.776 km
Speed
7.128 km/s
True Right ascension
17h 15m 51s
True Declination
0° 00' 00"
Sunlit
Object was in daylight at epoch
Visualization orbit readout
Latitude
Unknown
Longitude
Unknown
Altitude
Unknown
Speed
Unknown
Apparent Right ascension
Unknown
Apparent Declination
Unknown
Sunlit
N/A
Visualization observer readout
Local Sidereal Time
12:35:43
Azimuth
Unknown
Elevation
Unknown
Doppler factor
Unknown
Orbital elements
Apogee altitude
1,495.104 km
Perigee altitude
1,471.168 km
Semi-major axis
7,861.273 km
Eccentricity
0.00152
Inclination
102.019°
RAAN
258.9626°
Arg. of periapsis
321.3632°
True anomaly
38.74348°
Mean anomaly
38.6344°
Eccentric anomaly
38.68892°
Mean motion
3.11389 °/min
Orbital period
115.61 mins
BSTAR
0.00072849
Loading maneuver chart data...
Computing Atmospheric mass density...
Loading historical data...
Loading historical data...
Loading historical data...
Loading historical data...
Loading historical data...
Loading historical data...
Loading historical data...

Documentation

Showing up to 5 results
|